Tracking 34408 objects as of 13-Jun-2026
HD Live streaming from Space Station
objects crossing your sky now

SL-16 DEB

Track SL-16 DEB now!
10-day predictions


NORAD ID: 22578
Int'l Code: 1993-016F
Perigee: 645.1 km
Apogee: 799.6 km
Inclination: 71.1 °
Period: 99.1 minutes
Semi major axis: 7093 km
RCS: 0.2871 m2 (medium)
Launch date: March 26, 1993
Source: Commonwealth of Independent States (former USSR) (CIS)
Launch site: TYURATAM MISSILE AND SPACE COMPLEX (TTMTR)

Note: This is SATELLITE DEBRIS
Your satellite tracking list
Your tracking list is empty




NASA's NSSDC Master Catalog

Two Line Element Set (TLE):
1 22578U 93016F   26164.27857712  .00000348  00000-0  91238-4 0  9993
2 22578  71.0616 154.2567 0108943 231.8607 139.5585 14.53199870754749
Source of the keplerian elements: AFSPC